Location: Stara Lesna
(49.1528°N, 20.2911°E)
Time: 19:09:18
(UTC+02:00)

Cosmos 1607 - Pass Details

Date: 13 July 2020
Orbit: 913 x 990 km, 65.0° (Epoch: 10 August)

Event Time Altitude Azimuth Distance (km) Brightness Sun altitude
Exits shadow 00:18:50 32° 171° (S) 1,555 4.5 -18.8°
Maximum altitude 00:21:15 48° 119° (ESE) 1,222 4.3 -18.9°
Drops below altitude 10° 00:27:16 10° 47° (NE) 2,704 6.8 -18.9°
Sets 00:29:56 0° 42° (NE) 3,666 7.7 -19.0°
